Catania, Italy

2:29 PM CET on February 22, 2017 (GMT +0100)
Fontanarossa

Weather History for LICC - February, 2013

Change the Weather History Date:

Friday, February 15, 2013

  Actual Average Record
Temperature  
Mean Temperature 50 °F -  
Max Temperature 60 °F 63 °F 72 °F (2016)
Min Temperature 39 °F 43 °F 33 °F (2006)
Degree Days  
Heating Degree Days 16    
Moisture  
Dew Point 36 °F    
Average Humidity 65    
Maximum Humidity 81    
Minimum Humidity 36    
Precipitation  
Precipitation 0.00 in 0.06 in - ()
Sea Level Pressure  
Sea Level Pressure 30.01 in    
Wind  
Wind Speed 7 mph ()    
Max Wind Speed 14 mph    
Max Gust Speed -    
Visibility 6.2 miles    
Events      
Averages and records for this station are not official NWS values.
T = Trace of Precipitation, MM = Missing Value Source: Averaged Metar Reports

Daily Weather History Graph

Daily Weather History Graph

Search for Another Location

Airport or City:

Trip Planner

Search our weather history database for the weather conditions in past years. The results will help you decide how hot, cold, wet, or windy it might be!

Date:

Astronomy

Feb. 15, 2013 Rise Set
Actual Time 6:49 AM CET 5:39 PM CET
Civil Twilight 6:22 AM CET 6:06 PM CET
Nautical Twilight 5:51 AM CET 6:36 PM CET
Astronomical Twilight 5:21 AM CET 7:07 PM CET
Moon 9:22 AM CET (2/15) 11:15 PM CET (2/15)
Length of Visible Light 11h 43m
Length of Day
10h 50m
Waxing Crescent, 28% of the Moon is Illuminated
Feb 15
Waxing Crescent
Feb 17
First Quarter
Feb 25
Full
Mar 4
Last Quarter
Mar 11
New

Hourly Weather History & Observations

Time (CET) Temp. Windchill Dew Point Humidity Pressure Visibility Wind Dir Wind Speed Gust Speed Precip Events Conditions
12:20 AM 39.2 °F 35.9 °F 33.8 °F 81% 29.95 in 6.2 mi West 4.6 mph - N/A   Partly Cloudy
12:50 AM 41.0 °F 36.4 °F 33.8 °F 76% 29.98 in 6.2 mi SW 6.9 mph - N/A   Partly Cloudy
1:20 AM 42.8 °F 37.0 °F 35.6 °F 76% 29.95 in 6.2 mi SW 10.4 mph - N/A   Partly Cloudy
1:50 AM 42.8 °F 36.6 °F 35.6 °F 76% 29.98 in 6.2 mi WSW 11.5 mph - N/A   Partly Cloudy
2:20 AM 41.0 °F 35.8 °F 33.8 °F 76% 29.98 in 6.2 mi West 8.1 mph - N/A   Partly Cloudy
2:50 AM 41.0 °F 35.8 °F 33.8 °F 76% 29.95 in 6.2 mi West 8.1 mph - N/A   Partly Cloudy
3:20 AM 41.0 °F 35.2 °F 33.8 °F 76% 29.95 in 6.2 mi West 9.2 mph - N/A   Partly Cloudy
3:50 AM 41.0 °F 37.1 °F 33.8 °F 76% 29.98 in 6.2 mi West 5.8 mph - N/A   Partly Cloudy
4:20 AM 41.0 °F 35.2 °F 33.8 °F 76% 29.95 in 6.2 mi West 9.2 mph - N/A   Partly Cloudy
4:50 AM 41.0 °F 35.2 °F 33.8 °F 76% 29.98 in 6.2 mi WSW 9.2 mph - N/A   Partly Cloudy
5:20 AM 39.2 °F 33.0 °F 33.8 °F 81% 29.98 in 6.2 mi West 9.2 mph - N/A   Partly Cloudy
5:50 AM 39.2 °F 35.0 °F 33.8 °F 81% 29.98 in 6.2 mi SW 5.8 mph - N/A   Partly Cloudy
6:20 AM 41.0 °F 35.2 °F 33.8 °F 76% 29.98 in 6.2 mi West 9.2 mph - N/A   Partly Cloudy
6:50 AM 39.2 °F 35.0 °F 33.8 °F 81% 30.01 in - West 5.8 mph - N/A   Clear
7:20 AM 39.2 °F 35.9 °F 33.8 °F 81% 30.01 in - West 4.6 mph - N/A   Clear
7:50 AM 41.0 °F 36.4 °F 33.8 °F 76% 30.01 in - WSW 6.9 mph - N/A   Clear
8:20 AM 44.6 °F 39.7 °F 35.6 °F 71% 30.01 in - WSW 9.2 mph - N/A   Clear
8:50 AM 48.2 °F - 37.4 °F 66% 30.01 in - WSW 9.2 mph - N/A   Clear
9:20 AM 50.0 °F - 37.4 °F 62% 30.01 in - West 10.4 mph - N/A   Clear
9:50 AM 51.8 °F - 37.4 °F 58% 30.01 in - West 9.2 mph - N/A   Clear
10:20 AM 55.4 °F - 37.4 °F 51% 30.04 in - West 10.4 mph - N/A   Clear
10:50 AM 57.2 °F - 37.4 °F 48% 30.04 in 6.2 mi WNW 6.9 mph - N/A   Partly Cloudy
11:20 AM 57.2 °F - 37.4 °F 48% 30.04 in 6.2 mi West 6.9 mph - N/A   Partly Cloudy
11:50 AM 57.2 °F - 35.6 °F 44% 30.04 in 6.2 mi Variable 5.8 mph - N/A   Scattered Clouds
12:20 PM 59.0 °F - 37.4 °F 45% 30.01 in 6.2 mi West 9.2 mph - N/A   Mostly Cloudy
12:50 PM 57.2 °F - 35.6 °F 44% 30.01 in 6.2 mi West 11.5 mph - N/A   Mostly Cloudy
1:20 PM 59.0 °F - 37.4 °F 45% 30.01 in 6.2 mi WSW 13.8 mph - N/A   Mostly Cloudy
1:50 PM 60.8 °F - 33.8 °F 36% 30.01 in 6.2 mi WSW 10.4 mph - N/A   Mostly Cloudy
2:20 PM 60.8 °F - 35.6 °F 39% 30.01 in 6.2 mi WSW 12.7 mph - N/A   Mostly Cloudy
2:50 PM 59.0 °F - 33.8 °F 39% 30.01 in 6.2 mi WSW 10.4 mph - N/A   Scattered Clouds
3:20 PM 59.0 °F - 37.4 °F 45% 30.01 in 6.2 mi Variable 5.8 mph - N/A   Scattered Clouds
3:50 PM 55.4 °F - 39.2 °F 54% 30.01 in 6.2 mi ENE 9.2 mph - N/A   Scattered Clouds
4:20 PM 53.6 °F - 39.2 °F 58% 30.01 in 6.2 mi ENE 8.1 mph - N/A   Scattered Clouds
4:50 PM 53.6 °F - 37.4 °F 54% 30.01 in 6.2 mi ENE 6.9 mph - N/A   Scattered Clouds
5:20 PM 53.6 °F - 39.2 °F 58% 30.01 in 6.2 mi Variable 2.3 mph - N/A   Mostly Cloudy
5:50 PM 53.6 °F - 39.2 °F 58% 30.01 in 6.2 mi Variable 1.2 mph - N/A   Scattered Clouds
6:20 PM 53.6 °F - 39.2 °F 58% 30.01 in 6.2 mi Variable 1.2 mph - N/A   Scattered Clouds
6:50 PM 51.8 °F - 39.2 °F 62% 30.04 in 6.2 mi West 4.6 mph - N/A   Scattered Clouds
7:20 PM 51.8 °F - 39.2 °F 62% 30.04 in 6.2 mi West 5.8 mph - N/A   Scattered Clouds
7:50 PM 48.2 °F - 39.2 °F 71% 30.04 in 6.2 mi West 3.5 mph - N/A   Partly Cloudy
8:20 PM 48.2 °F - 39.2 °F 71% 30.04 in 6.2 mi WSW 4.6 mph - N/A   Partly Cloudy
8:50 PM 44.6 °F 40.7 °F 37.4 °F 76% 30.04 in 6.2 mi WSW 6.9 mph - N/A   Partly Cloudy
9:20 PM 42.8 °F 39.3 °F 37.4 °F 81% 30.04 in 6.2 mi West 5.8 mph - N/A   Partly Cloudy
9:50 PM 42.8 °F 39.3 °F 37.4 °F 81% 30.04 in 6.2 mi WSW 5.8 mph - N/A   Partly Cloudy
10:20 PM 42.8 °F 37.0 °F 35.6 °F 76% 30.04 in 6.2 mi WSW 10.4 mph - N/A   Partly Cloudy
10:50 PM 42.8 °F 38.0 °F 35.6 °F 76% 30.04 in 6.2 mi WSW 8.1 mph - N/A   Partly Cloudy
11:20 PM 41.0 °F 36.4 °F 35.6 °F 81% 30.04 in 6.2 mi West 6.9 mph - N/A   Partly Cloudy
11:50 PM 42.8 °F 38.6 °F 35.6 °F 76% 30.04 in 6.2 mi West 6.9 mph - N/A   Partly Cloudy